RH
17 17 16 16 16 16 16 16 17 17 18 18 19 19 20 21 22 23 24 25 26 27 28 28 28 27 28 28 28 28 28 27 26 24 22 20 17 15 14 14 15 16 15 14 12 9 8 6 5 5 4 3 3 3 3 3 3 3 3 3 3 3 3 3 3 2 2 2 2 2 2 2 2 3 2 3 2 2 3 3 3 6 11 13 11 10 15
17 16 16 15 15 15 15 15 16 16 16 17 17 17 17 17 18 19 20 22 23 24 25 26 26 26 26 27 27 28 28 27 26 24 21 19 16 14 14 13 13 13 12 12 10 8 6 5 4 4 3 3 3 3 3 3 3 3 3 3 3 3 3 2 3 3 2 3 2 2 3 2 2 3 2 3 3 2 3 3 3 5 9 13 12 8 12
17 16 15 15 15 14 14 15 15 16 17 17 17 18 17 16 16 17 18 19 20 22 23 23 24 25 25 26 27 27 27 26 24 22 19 18 15 13 12 12 12 12 11 9 8 6 5 4 4 3 3 3 3 3 3 3 3 3 3 3 3 2 3 3 3 3 3 3 3 2 3 3 3 3 3 3 3 3 4 4 4 4 5 10 13 10 9
16 16 15 15 15 15 14 15 15 15 16 17 17 18 18 17 17 17 18 19 19 20 22 22 23 24 25 25 26 25 24 23 21 19 17 15 13 11 11 10 11 10 9 8 6 5 4 3 3 3 3 3 3 3 3 3 3 3 3 3 3 3 3 3 3 3 2 3 3 3 3 3 3 3 3 3 3 3 5 5 5 5 4 7 12 12 10
16 16 15 15 15 15 15 15 15 16 16 16 16 17 17 17 18 18 19 20 20 21 22 23 23 24 25 25 24 22 21 19 17 15 13 11 10 10 9 9 9 9 7 6 4 4 3 3 3 3 3 3 3 3 3 3 3 3 3 3 3 3 3 3 3 3 3 3 3 3 3 3 3 3 3 3 3 3 5 5 5 5 5 6 9 11 13
16 16 15 15 15 15 15 15 15 16 16 16 16 17 18 18 18 18 18 18 19 20 21 21 22 23 22 21 20 19 17 15 13 11 9 9 8 8 8 7 7 6 5 4 3 3 3 3 3 3 3 3 3 3 3 3 3 3 3 3 3 3 3 3 3 3 3 3 3 3 3 3 3 3 3 3 3 3 4 6 6 6 6 7 7 9 14
14 15 15 15 15 15 16 15 15 16 17 17 17 19 20 19 19 18 17 17 17 17 17 17 18 18 18 17 15 14 12 10 9 8 7 7 6 6 6 6 5 5 4 3 3 3 3 3 3 3 3 3 3 3 3 3 3 3 3 3 3 3 3 3 3 3 3 4 3 3 4 3 3 3 3 3 3 3 4 6 7 5 5 7 7 7 13
12 12 13 14 15 15 16 16 16 17 17 17 18 19 20 19 19 19 17 17 16 16 16 15 15 14 13 13 11 11 10 8 7 7 6 6 5 5 5 4 4 4 3 3 3 3 3 3 3 3 3 3 3 3 3 3 3 3 3 3 3 3 3 3 4 4 4 4 4 4 4 4 4 4 3 3 3 3 3 5 7 6 5 7 8 8 12
11 10 11 11 12 13 13 15 16 16 17 18 19 20 19 19 19 18 17 17 16 15 15 14 13 12 11 11 10 9 9 7 7 6 6 5 5 4 4 4 4 3 4 3 3 3 3 3 3 3 3 3 3 3 3 3 3 3 3 3 4 3 4 4 4 4 4 4 4 4 4 4 4 4 4 3 4 3 3 5 6 6 5 7 9 9 12
10 10 10 10 10 10 10 11 12 13 14 16 18 19 18 18 18 17 17 16 15 14 14 13 12 11 11 11 10 9 8 7 7 6 5 5 5 5 4 4 4 4 4 4 3 3 4 3 4 4 3 3 3 3 3 3 3 4 3 4 4 4 4 4 4 4 4 4 4 4 4 4 4 4 4 3 4 3 3 4 6 6 6 7 10 10 12
8 8 9 9 9 9 9 10 10 10 11 11 13 14 15 15 16 16 15 15 15 14 13 13 12 11 11 11 10 9 8 7 7 6 6 6 6 5 5 5 4 4 4 4 4 4 4 4 4 4 3 3 3 3 4 4 4 4 4 4 4 4 4 4 4 5 4 4 5 4 4 5 4 4 4 3 4 3 3 4 5 6 6 7 10 11 11
5 5 6 6 7 7 8 8 8 9 9 9 9 10 10 11 12 12 13 13 13 13 13 12 12 11 11 10 9 9 9 8 7 7 6 6 6 5 5 5 5 4 4 4 4 4 4 4 4 4 4 4 4 4 4 4 4 4 4 4 5 4 5 5 5 5 5 5 5 4 4 5 4 4 4 4 4 4 3 4 5 6 6 7 9 10 11
4 4 4 4 4 4 5 5 6 7 7 8 8 8 8 9 9 9 10 10 10 11 11 11 11 10 10 10 9 9 8 8 7 7 6 6 6 6 5 5 5 4 4 5 4 4 4 4 4 4 4 4 4 4 4 4 4 5 5 5 5 5 5 5 5 6 5 5 5 5 5 5 5 4 4 4 4 3 3 3 4 5 6 6 8 9 10
7 6 6 5 5 4 4 4 4 4 4 5 6 7 7 8 8 8 8 8 8 9 9 9 9 9 9 9 8 8 8 7 7 6 6 6 5 5 5 5 5 5 4 5 4 4 4 4 4 4 4 5 4 4 5 5 5 5 5 5 6 5 6 6 6 6 6 6 6 5 5 5 5 4 4 3 4 3 3 3 3 5 6 6 6 8 10
5 5 5 6 6 6 6 6 5 5 5 4 4 4 4 5 6 7 7 7 8 8 7 7 7 8 8 8 7 7 7 7 7 6 6 6 5 5 5 5 5 5 5 5 5 4 5 4 5 4 4 5 5 4 5 5 5 6 6 6 6 6 7 7 7 7 7 7 6 6 5 6 5 4 4 3 4 3 3 3 3 4 5 4 5 8 9
2 3 2 2 3 3 4 5 5 6 6 6 6 6 5 4 4 4 5 5 6 7 7 7 7 6 6 7 7 7 6 6 6 6 6 6 5 5 5 5 5 5 5 5 5 5 5 4 5 5 5 5 5 5 5 5 6 6 6 6 7 7 7 7 7 8 8 7 7 6 6 6 5 4 4 3 3 3 3 3 3 4 4 4 5 8 10
3 3 3 2 2 2 2 2 2 3 3 4 5 6 7 7 7 6 5 4 4 4 5 6 6 7 7 6 6 6 6 6 6 5 6 6 5 5 5 5 5 5 5 5 5 5 5 5 5 5 5 5 5 5 5 6 6 6 6 7 7 7 8 7 7 8 7 7 6 6 6 6 5 4 4 3 3 3 2 3 3 3 4 5 6 9 11
4 4 3 3 3 3 3 2 2 2 2 2 2 2 3 5 6 7 8 7 7 6 5 4 4 4 5 6 6 6 6 6 6 6 5 5 5 5 5 5 5 5 5 5 5 5 5 5 6 6 6 6 6 6 6 6 6 7 7 7 7 7 7 7 7 7 7 6 6 5 5 5 4 4 4 3 3 3 3 3 3 4 5 6 8 11 13
6 5 4 4 4 4 3 3 3 3 2 2 2 1 1 2 2 3 5 6 7 8 8 8 8 6 4 3 4 5 6 6 6 6 6 6 6 6 5 5 5 5 5 5 5 6 6 6 6 6 6 6 7 6 6 6 6 7 6 7 7 6 6 6 7 7 6 6 5 5 5 5 4 4 3 3 3 3 3 3 4 5 7 8 10 14 16
7 6 6 5 4 4 4 3 3 3 2 2 2 2 2 1 1 1 2 3 5 5 6 7 10 11 11 7 4 3 3 4 5 5 6 6 6 6 6 6 6 6 6 6 6 6 6 6 7 7 6 7 7 6 6 6 6 6 6 6 6 6 6 6 6 6 6 5 5 5 5 5 4 3 3 4 4 4 4 4 4 6 8 9 11 15 19
8 8 7 6 5 5 4 4 3 3 3 3 2 2 2 1 1 1 1 2 3 4 5 5 5 8 13 15 14 10 6 5 4 4 4 4 5 6 5 6 6 6 6 6 6 7 7 6 6 6 6 6 6 6 6 6 5 5 6 6 6 6 6 6 6 7 7 5 4 5 6 5 4 4 5 5 6 5 5 5 5 7 9 11 13 16 21
10 9 8 7 7 6 5 4 4 3 3 3 2 2 2 1 1 2 1 1 2 2 4 6 5 4 6 12 18 21 20 17 13 10 7 4 4 4 4 4 5 5 6 6 6 6 6 6 6 6 6 6 6 6 6 5 5 5 5 5 5 5 6 6 5 7 7 6 5 6 6 5 5 5 7 8 7 7 8 8 8 9 12 15 17 19 23
11 10 9 8 8 7 6 5 4 3 3 3 2 2 2 2 2 1 1 2 2 2 3 5 6 6 5 6 13 21 29 32 30 27 23 17 11 8 6 5 5 5 5 6 6 6 6 6 6 6 5 5 6 5 5 5 4 5 5 4 4 5 6 6 5 6 7 5 5 7 8 6 5 7 10 11 10 10 11 11 12 14 17 20 22 23 25
13 11 10 9 8 8 7 6 5 4 3 3 3 3 2 2 2 2 1 1 1 2 3 4 5 7 7 6 8 16 30 41 46 44 40 35 30 25 19 14 11 9 8 9 8 8 8 7 7 7 6 7 7 6 5 5 5 5 4 4 5 6 7 7 8 8 6 4 5 8 9 7 6 9 14 16 15 15 16 17 17 19 21 24 26 27 28
14 12 11 10 9 8 8 7 6 5 4 3 3 3 3 2 2 1 1 2 2 2 3 4 6 7 7 7 8 13 26 42 54 60 60 55 48 43 39 34 28 22 19 17 16 14 13 12 11 10 9 10 9 7 7 6 5 5 4 4 7 9 8 10 12 12 9 7 8 12 12 9 8 13 18 19 20 21 22 22 23 24 25 27 30 31 31
15 13 11 10 9 8 8 7 6 5 4 4 3 3 3 2 2 2 1 2 2 3 3 4 6 7 7 8 9 12 21 34 49 63 73 76 72 66 60 54 48 42 37 32 28 26 23 20 18 17 17 15 13 12 11 9 7 5 3 4 11 14 15 17 18 16 15 14 16 20 17 11 11 18 22 23 24 26 27 28 30 30 30 31 33 35 36
15 15 12 10 9 9 8 7 7 6 5 4 4 4 3 3 2 2 2 1 3 5 5 5 6 6 6 7 8 10 17 27 35 42 52 64 77 86 87 82 73 63 55 49 44 40 35 32 29 27 26 24 23 21 18 14 10 8 5 7 15 22 26 28 29 28 26 24 26 29 25 16 16 24 28 29 30 30 30 32 35 35 36 37 38 41 43
16 15 12 10 10 9 8 8 7 6 5 5 4 4 3 3 2 2 2 1 3 6 7 7 7 6 5 7 8 9 13 20 28 32 34 40 52 70 88 98 96 86 74 66 60 54 49 45 40 37 35 34 33 32 27 21 17 14 13 14 21 30 35 39 42 44 41 35 36 39 34 27 28 33 34 35 37 37 36 38 41 42 44 46 47 49 51
16 15 12 11 10 10 9 8 7 7 6 5 5 4 3 3 2 2 2 1 2 5 8 9 8 6 5 5 7 8 10 14 22 31 37 39 41 46 56 74 92 101 96 86 77 71 66 60 53 48 44 42 42 40 34 29 27 25 24 26 32 42 51 57 60 60 55 51 52 50 44 41 44 47 47 48 50 49 49 50 52 53 54 56 57 58 58
17 15 13 12 12 11 10 9 8 7 6 5 5 4 3 3 2 2 2 2 2 3 7 10 10 6 5 5 5 5 7 10 13 21 29 37 42 43 42 47 64 83 94 98 97 92 85 80 75 67 56 52 53 51 46 42 39 34 34 43 56 68 78 82 82 78 74 74 74 66 58 58 61 61 62 67 71 70 66 65 67 68 68 71 74 75 73
17 16 13 13 14 13 11 10 9 7 6 6 5 4 3 3 2 2 2 2 2 2 6 12 13 9 5 4 4 4 4 6 8 11 17 23 29 36 40 40 43 51 63 75 81 80 82 89 94 87 75 68 65 61 59 58 49 39 44 62 79 90 98 100 98 95 93 94 93 83 69 68 74 76 76 80 85 87 84 79 79 81 83 88 93 93 89
18 17 15 15 15 14 11 10 9 7 6 6 5 4 4 3 2 2 2 2 3 3 5 10 15 14 7 3 4 4 3 5 6 6 9 13 18 23 29 34 37 38 40 45 52 61 73 84 90 92 92 90 83 78 77 73 60 52 61 72 77 86 96 98 97 98 99 101 103 95 81 77 85 92 92 90 88 89 89 87 87 89 94 99 102 101 96
19 18 17 17 17 15 12 10 9 7 6 6 5 4 4 3 2 3 2 2 4 6 6 8 15 19 13 5 3 4 3 4 5 5 5 8 13 17 22 27 31 34 35 41 54 68 72 69 70 80 92 96 92 88 85 75 62 59 63 63 61 68 78 81 83 88 91 94 100 102 96 92 93 95 96 93 90 88 87 85 83 85 88 92 95 96 94
20 20 19 19 19 17 13 10 8 6 5 5 5 4 3 3 3 3 2 2 3 6 9 12 17 23 22 12 4 3 4 4 4 5 5 5 7 12 17 21 26 31 35 41 50 57 56 53 56 62 68 71 71 69 65 57 51 49 49 47 48 53 57 59 62 66 69 76 89 99 102 101 99 96 93 90 87 84 80 76 74 74 75 75 76 77 77
22 22 21 21 21 18 13 10 7 6 5 5 5 4 3 3 3 3 3 3 3 5 11 16 20 25 29 22 9 3 3 5 5 5 6 6 5 7 10 13 18 27 34 36 38 42 46 51 53 52 49 48 46 41 37 35 34 34 35 39 41 40 40 42 44 44 48 61 77 87 90 90 90 89 86 81 77 75 71 67 64 62 58 55 52 50 50
24 24 23 23 22 18 13 9 6 5 5 5 4 4 4 4 4 3 3 4 3 4 10 18 24 29 33 30 20 9 3 3 5 5 5 6 5 5 6 7 9 15 19 21 24 30 35 38 36 32 28 25 20 16 16 17 17 19 23 26 27 26 26 26 26 27 34 46 58 65 68 68 68 66 63 60 59 58 55 51 46 41 37 33 29 27 27
25 25 25 25 23 18 13 9 7 6 5 5 4 4 4 4 4 4 4 5 5 5 7 13 24 34 38 38 34 24 11 4 5 5 5 5 5 5 5 6 6 7 7 8 10 13 16 16 15 12 10 8 6 6 8 8 8 10 12 12 12 12 13 14 15 18 22 29 38 45 47 48 46 43 39 38 39 39 37 33 29 24 21 19 16 15 15
27 27 26 26 24 19 13 9 7 6 5 5 5 5 5 5 4 5 5 5 6 6 5 7 17 28 36 43 48 43 28 14 7 5 5 6 5 5 5 5 5 5 5 6 6 7 6 6 6 6 6 7 7 7 6 6 6 7 7 7 7 8 8 8 11 12 14 18 24 28 30 31 31 27 24 23 25 25 22 20 17 14 13 12 11 10 11
28 29 28 27 25 20 14 10 8 7 6 6 6 6 6 6 5 6 6 6 6 7 7 6 8 13 20 30 43 50 47 38 28 18 11 8 6 5 6 6 5 6 5 5 5 5 5 6 6 6 7 7 7 7 7 7 7 7 7 7 7 7 7 7 7 8 10 12 14 15 17 19 19 17 15 15 15 15 13 12 11 11 10 9 9 10 10
31 31 30 28 25 21 15 11 9 8 7 7 7 7 7 7 7 7 6 7 7 7 7 7 7 7 8 12 20 29 39 45 46 41 34 25 18 12 9 7 7 7 6 6 7 7 6 5 5 5 7 8 8 8 8 7 6 7 8 8 7 7 7 7 7 7 9 10 10 10 11 11 10 11 11 11 11 10 10 10 9 9 9 9 9 9 9
34 33 32 30 26 21 16 12 10 10 9 8 8 9 8 9 9 8 8 8 8 8 8 9 9 8 8 7 8 10 15 22 29 36 40 41 39 35 31 26 20 13 8 7 9 9 8 8 7 6 8 10 10 10 9 8 7 7 6 7 8 8 8 8 8 8 8 8 9 9 9 9 9 9 9 10 10 9 9 9 8 8 9 8 8 9 10
37 35 34 31 26 20 16 13 11 11 10 9 9 9 10 10 10 9 9 9 9 10 10 10 10 10 10 9 8 8 8 8 10 15 20 25 31 36 40 42 42 36 29 25 20 15 11 10 8 8 12 16 17 16 14 12 11 10 8 7 8 9 9 10 11 10 9 8 8 7 7 8 9 9 9 10 10 9 9 9 9 8 8 8 8 9 10
39 38 36 31 25 19 16 14 13 12 12 11 10 10 11 12 11 11 11 11 11 11 12 12 12 12 12 11 11 10 9 9 8 8 8 10 13 16 20 26 32 36 40 44 43 38 33 27 20 17 19 20 19 19 19 19 19 18 16 13 12 11 10 9 9 9 10 9 9 9 9 9 9 9 9 9 9 8 9 9 8 8 8 8 7 8 9
42 40 36 30 23 19 16 15 14 13 13 12 11 12 12 13 13 13 13 13 14 13 13 13 13 13 13 13 13 13 12 11 10 9 9 9 9 9 10 12 14 16 21 28 34 39 44 47 45 43 42 39 33 29 29 28 27 26 24 22 20 17 14 12 10 9 8 8 8 8 9 9 9 9 8 8 9 9 8 7 7 7 7 7 7 7 8
45 42 36 28 23 20 18 16 16 16 15 13 13 13 14 14 15 15 15 15 16 15 15 15 15 15 15 15 14 14 14 14 13 12 12 11 10 9 9 10 10 10 12 13 13 16 24 32 37 44 52 55 54 52 51 47 42 37 33 31 28 24 21 17 14 11 10 9 9 8 8 9 9 9 8 8 8 8 8 7 7 7 7 7 8 7 8
47 42 34 27 23 21 19 18 19 19 17 15 15 15 16 16 16 17 17 17 17 17 17 17 17 17 17 17 16 16 16 15 15 15 15 14 13 12 11 11 10 11 12 12 11 10 11 13 17 24 34 41 47 53 57 58 56 52 46 41 38 34 30 26 22 18 14 12 10 9 8 8 8 8 8 8 8 8 8 8 8 8 8 8 8 8 9
47 40 32 27 24 22 21 22 22 21 19 18 18 17 17 17 18 19 19 19 18 19 19 19 19 19 19 18 18 18 18 18 17 16 16 16 16 15 13 13 13 13 13 13 13 12 11 10 12 15 20 25 30 36 43 49 54 58 58 55 52 47 43 38 34 29 25 21 18 15 12 10 9 9 8 8 8 8 8 8 9 9 10 10 10 10 10
46 39 32 28 26 24 23 24 24 22 21 21 20 19 19 19 20 21 21 20 20 20 20 19 19 20 20 20 20 20 19 19 19 18 18 18 17 16 16 15 14 14 14 15 15 14 13 13 13 13 14 17 22 25 29 33 38 45 51 56 58 58 56 52 48 44 40 37 34 30 25 21 18 16 14 12 11 10 10 11 11 12 14 15 16 18 19
45 38 33 30 28 27 26 26 25 23 22 22 22 21 21 22 22 23 23 22 21 21 20 20 21 21 21 21 21 21 20 20 20 19 19 18 17 16 18 17 14 14 16 17 17 16 16 15 14 12 12 13 16 19 23 26 27 29 33 39 44 49 52 53 53 53 52 51 50 47 45 42 38 35 33 30 27 24 23 23 24 25 27 28 28 29 29
42 36 33 31 30 29 29 28 25 22 22 22 22 22 23 23 23 24 24 23 21 21 21 21 21 22 21 21 21 21 20 21 21 20 19 18 17 17 17 15 14 16 18 20 19 19 18 16 14 13 12 12 13 16 21 24 26 25 25 26 28 32 35 38 41 43 44 45 45 45 44 43 43 43 42 41 40 39 38 37 36 35 34 32 30 28 27
37 34 32 31 30 29 28 27 24 22 21 21 22 22 23 24 25 25 25 23 22 22 22 22 23 22 22 22 22 22 22 22 21 20 19 17 16 16 16 15 16 18 19 19 18 19 18 17 16 15 13 13 12 13 17 21 24 26 26 24 23 24 25 27 28 30 31 32 32 31 31 32 33 33 34 35 34 33 33 32 31 29 27 26 25 24 23
35 34 32 31 29 28 26 24 22 22 22 23 24 25 26 26 26 26 26 25 25 24 24 24 24 23 23 22 23 23 23 22 21 20 19 17 16 16 17 17 18 18 18 17 17 17 17 17 16 15 14 13 12 12 13 16 19 22 24 25 25 23 23 23 23 23 24 24 24 24 24 25 25 25 24 25 24 23 23 23 23 23 23 23 23 22 21
Wind_Speed
7 7 6 7 6 6 6 7 7 6 7 7 7 7 8 8 9 9 10 11 11 11 11 12 12 12 12 11 11 11 10 10 10 10 10 10 10 10 10 10 10 10 10 10 10 11 12 12 12 12 12 12 14 15 15 16 18 19 21 22 24 25 26 27 29 31 31 32 34 36 38 40 41 42 44 44 44 45 46 47 48 49 46 45 49 49 45
8 7 6 6 6 6 6 6 6 6 6 6 6 7 7 8 8 9 10 11 12 12 12 13 13 14 13 13 13 13 12 12 12 13 13 13 12 12 12 12 11 11 11 11 12 12 13 13 12 13 13 14 15 16 17 18 19 21 22 24 25 27 28 29 30 31 31 32 34 36 38 41 42 42 44 44 44 44 45 46 48 49 48 45 48 51 48
9 8 8 7 7 6 6 6 6 6 6 6 7 7 7 7 8 8 9 10 11 11 12 12 13 13 13 13 13 13 13 13 13 14 14 14 14 14 14 13 13 13 13 13 13 13 13 13 13 14 14 15 16 17 18 19 21 23 24 25 27 29 30 31 33 34 35 35 36 37 38 41 42 43 44 44 45 45 44 46 48 50 50 47 47 51 51
11 10 9 9 8 8 7 7 7 7 7 7 7 7 8 8 8 9 9 9 10 10 11 11 12 12 12 12 12 12 12 13 13 14 14 14 14 15 14 14 14 14 14 14 14 14 14 14 15 15 16 17 18 19 20 21 22 24 25 26 28 29 30 32 33 36 37 37 38 40 40 42 43 44 45 45 46 46 45 46 48 50 52 49 47 50 52
12 12 11 11 10 10 9 9 8 8 8 8 8 8 8 8 9 9 9 10 10 10 10 11 11 11 11 12 12 12 12 13 14 14 15 14 15 15 15 15 15 15 15 15 15 15 15 15 16 17 18 18 19 20 22 23 24 26 27 28 29 30 31 32 33 35 37 38 38 40 41 43 45 45 46 46 47 47 47 47 49 51 52 50 49 50 51
14 14 13 13 12 12 11 11 11 10 10 10 10 10 10 10 10 10 10 10 11 11 11 11 11 12 12 12 12 13 13 14 14 14 15 15 15 15 16 16 16 16 16 16 16 16 16 17 18 19 20 20 21 23 24 25 26 27 28 29 30 31 32 33 34 35 37 39 39 40 42 44 46 47 47 47 48 49 49 48 49 51 51 50 51 51 49
15 15 15 15 15 14 14 14 13 13 13 12 12 12 12 12 12 11 11 12 12 12 12 13 13 13 13 13 14 14 14 15 15 15 16 16 15 16 16 16 16 16 16 17 17 18 18 19 20 21 22 23 23 25 26 27 28 29 30 31 32 32 33 34 34 35 37 40 41 41 42 43 46 47 47 48 49 51 51 49 49 52 52 50 52 52 48
17 17 17 17 17 16 16 16 16 16 16 15 15 15 15 15 15 14 14 14 14 14 14 14 15 15 15 15 16 16 16 16 16 16 17 17 16 16 17 17 17 17 18 19 19 20 20 21 22 23 24 25 25 26 28 29 30 31 32 33 33 34 35 35 35 35 37 40 41 42 43 44 45 47 47 48 49 51 52 51 50 52 53 51 51 52 49
19 19 19 19 19 19 19 19 19 19 18 18 19 19 19 18 18 18 17 17 17 17 17 17 17 18 18 18 18 18 18 18 18 18 18 18 18 18 18 19 19 20 20 21 22 22 23 24 25 26 26 27 28 29 30 31 32 33 34 34 35 36 37 37 38 37 38 40 42 42 44 44 46 47 48 48 48 50 52 51 51 53 53 51 51 51 49
22 22 22 22 21 21 21 21 21 21 21 21 22 22 22 22 22 21 21 21 21 21 21 21 21 21 21 21 21 21 21 20 20 20 20 21 21 21 21 22 22 23 23 24 24 25 26 27 27 28 29 29 30 31 32 33 34 34 35 36 37 38 39 40 41 40 40 41 43 44 44 44 46 47 48 48 48 48 50 51 51 52 52 51 50 50 49
24 24 25 25 25 25 24 24 24 24 24 24 24 25 25 25 25 25 25 25 24 24 24 24 24 24 24 24 24 24 24 24 24 24 24 24 24 25 25 25 25 26 27 27 28 28 29 29 30 30 31 31 32 33 34 35 36 36 37 38 39 40 41 42 43 43 42 43 44 45 45 45 47 49 49 49 48 48 49 50 50 50 51 51 50 49 49
25 26 27 27 27 28 28 28 28 27 27 27 27 28 28 28 28 29 29 29 28 28 28 28 28 28 28 28 28 27 27 27 27 27 28 28 28 28 28 29 29 29 30 30 31 31 31 32 32 32 33 33 34 35 35 36 37 38 39 40 41 42 42 43 45 45 45 45 46 46 46 46 48 50 51 50 49 48 48 48 48 49 50 51 49 48 49
26 27 28 28 29 30 30 31 31 31 31 31 31 31 31 31 32 32 32 32 32 32 32 32 31 31 31 31 31 31 31 31 31 31 31 32 32 32 32 32 32 32 33 33 34 34 34 35 35 34 35 35 36 37 37 38 39 40 41 42 43 44 44 45 46 47 47 47 48 48 48 47 49 51 51 51 50 50 49 47 47 49 50 50 50 49 50
24 25 27 28 30 31 32 32 33 34 34 34 34 34 35 35 35 35 35 35 35 35 36 36 35 35 35 35 35 35 35 35 35 35 35 35 35 35 35 35 36 36 36 37 37 37 37 38 38 37 37 38 38 39 39 40 41 42 43 44 45 45 46 47 48 48 49 49 49 50 49 49 50 52 52 52 52 52 51 50 48 48 50 51 51 50 50
16 19 21 24 26 29 31 32 34 35 36 36 37 37 38 38 38 39 39 39 39 39 39 39 39 39 39 39 39 39 39 39 38 38 38 38 38 39 39 39 39 40 40 40 40 41 41 41 41 41 41 41 41 41 42 43 43 43 45 46 46 47 47 48 49 49 50 51 52 52 52 51 52 54 54 54 54 53 53 53 50 48 49 51 52 51 51
12 13 15 17 19 21 24 27 30 32 34 36 38 39 39 40 41 41 42 42 43 43 43 43 43 43 43 43 43 43 43 43 42 42 42 42 42 42 42 42 42 43 43 43 44 44 44 44 45 44 44 44 45 44 45 45 45 46 47 48 48 48 49 50 51 51 51 52 53 54 54 53 54 56 56 56 55 55 56 56 53 50 50 52 52 52 52
15 15 16 17 18 19 20 21 23 26 28 31 35 37 39 40 42 43 44 44 45 46 46 46 46 46 46 46 47 47 47 47 47 46 46 46 46 46 46 45 45 46 46 46 47 47 47 47 48 47 47 48 48 48 48 48 48 49 50 50 50 51 52 52 52 52 53 53 54 54 54 54 55 57 58 58 57 56 58 59 56 53 52 53 53 53 54
18 19 20 20 21 22 23 23 24 25 26 27 30 32 35 38 40 42 43 44 45 47 48 49 49 49 50 50 50 50 50 50 50 50 50 50 50 50 50 49 49 50 49 50 50 50 50 50 51 51 51 51 51 51 51 51 51 52 52 53 53 53 54 54 53 53 53 54 55 55 53 53 56 58 59 60 59 57 59 60 58 56 54 54 54 54 55
21 22 23 24 25 25 26 27 28 28 29 29 30 31 33 35 38 40 42 44 44 45 47 49 50 51 52 52 52 52 52 53 53 53 53 54 54 54 54 53 54 54 54 54 54 54 54 54 54 54 54 54 54 55 53 53 54 54 55 54 54 55 56 55 55 54 54 53 55 56 54 53 56 58 60 61 59 58 59 59 58 57 56 56 55 54 54
22 24 25 26 28 29 30 30 31 32 32 33 34 34 35 36 37 38 41 43 44 45 45 47 48 50 51 52 53 54 54 54 55 55 55 56 56 56 56 56 56 57 56 56 56 56 57 56 56 57 56 55 56 56 55 54 54 54 55 55 54 55 56 56 55 55 53 54 55 55 53 53 56 58 60 60 59 58 59 59 58 57 56 56 55 54 53
23 24 26 28 30 31 32 33 33 34 35 36 37 38 39 39 39 40 41 42 44 45 45 46 46 48 50 51 52 53 53 54 55 55 56 56 56 57 57 57 57 57 57 57 56 56 57 56 56 57 56 56 56 55 55 55 53 52 54 55 54 54 54 55 55 54 52 54 55 52 50 52 56 57 57 57 57 58 59 59 59 58 57 57 57 55 53
25 26 27 29 31 32 33 34 34 35 37 38 40 41 42 42 42 42 42 43 44 45 46 46 46 47 48 50 51 52 52 52 53 53 54 55 55 55 56 56 57 57 56 56 56 55 55 55 55 55 54 54 55 54 54 55 53 52 53 54 55 54 53 54 54 53 52 54 53 50 48 50 54 55 55 54 55 57 58 59 60 59 58 58 58 56 54
27 28 29 31 32 34 35 36 36 36 37 39 41 43 44 45 45 45 44 45 45 46 46 46 46 46 47 49 50 50 50 51 51 51 51 52 52 53 53 54 55 55 55 55 54 54 54 53 53 54 53 53 54 54 54 54 53 52 53 54 54 53 52 52 51 51 54 56 53 50 49 50 52 53 53 54 56 57 57 58 59 59 59 58 58 57 54
29 30 31 33 34 36 38 39 39 39 39 40 42 43 45 46 47 47 46 46 46 47 47 46 45 45 46 47 48 49 49 49 48 48 49 50 50 50 50 51 52 52 52 52 52 52 53 52 52 53 52 51 53 54 53 54 53 52 53 55 53 50 51 50 47 48 54 58 54 51 51 52 52 53 52 53 56 56 56 58 58 58 58 58 57 56 54
31 32 33 35 36 38 40 41 42 42 42 42 43 45 46 47 48 47 47 47 47 48 48 46 45 45 45 45 46 47 48 48 47 47 47 48 48 48 48 49 50 50 50 50 50 50 50 50 50 50 49 49 51 52 51 52 52 53 53 53 50 48 49 48 46 47 53 55 52 50 52 53 52 52 52 54 56 56 55 56 57 58 58 58 56 55 54
32 33 35 36 37 39 40 42 43 44 43 44 45 46 48 49 49 48 48 47 48 49 49 47 46 45 44 44 44 46 46 46 46 46 45 46 46 47 47 48 49 49 49 49 49 49 49 48 48 48 48 49 50 50 49 50 52 54 54 50 47 47 46 45 47 50 52 51 49 50 53 54 51 50 52 55 56 56 55 55 56 56 57 57 56 54 53
34 35 36 37 38 39 40 42 43 44 44 44 45 47 49 50 50 49 48 47 47 48 48 48 47 46 45 43 43 44 45 46 46 45 45 46 46 46 47 48 48 49 49 50 49 49 48 48 48 48 48 49 50 50 49 50 52 54 52 47 45 45 43 41 46 50 51 49 48 50 55 56 53 50 51 53 55 56 56 56 56 56 56 57 56 54 53
35 36 37 38 38 39 40 41 43 44 44 45 46 48 50 51 50 49 48 47 47 47 48 48 47 46 45 44 43 43 43 45 46 46 46 46 46 47 48 48 49 50 50 50 50 49 49 49 48 48 49 50 50 50 50 51 52 53 50 45 43 43 41 41 46 48 47 47 48 50 55 57 54 51 50 51 53 56 56 56 58 58 58 58 58 56 55
37 37 38 38 38 39 40 41 42 43 43 44 46 48 50 51 51 49 48 46 45 46 47 47 47 46 45 44 43 43 42 43 44 45 46 46 46 46 47 49 51 52 52 51 51 51 51 50 49 50 50 50 52 53 52 51 52 51 47 43 41 40 40 43 46 47 47 47 47 50 54 56 54 52 50 51 53 55 55 55 57 57 58 58 58 58 57
37 38 38 39 39 39 40 41 42 42 43 44 45 48 50 51 50 48 46 45 44 45 46 47 46 46 45 44 43 43 42 42 43 44 46 46 46 47 47 48 51 53 54 53 52 51 52 52 52 52 51 51 54 55 53 53 53 47 41 41 42 42 43 45 46 48 49 50 49 51 54 55 55 53 52 52 53 54 54 54 55 56 56 57 57 56 56
38 39 40 40 40 40 40 41 42 42 43 44 45 48 50 50 49 47 45 44 43 44 45 47 46 45 45 44 43 42 42 42 42 43 45 46 47 48 48 48 50 52 53 54 53 53 53 53 54 54 54 54 56 56 54 56 53 43 37 40 44 45 45 46 46 49 53 54 54 54 54 55 56 54 53 53 54 55 55 54 54 55 55 55 54 54 53
39 40 41 41 41 41 41 42 42 42 43 44 46 48 49 49 48 46 45 44 43 43 44 46 47 46 45 45 44 43 42 42 42 43 44 45 46 48 49 49 50 51 52 53 54 54 53 52 52 52 53 55 56 56 55 54 51 43 40 43 46 47 48 48 48 51 55 57 58 57 56 54 54 53 52 52 53 54 54 53 52 52 52 52 51 51 51
39 42 43 43 43 43 42 42 43 43 43 44 45 47 48 48 47 46 44 43 42 42 43 44 46 47 46 45 45 45 44 43 43 43 44 45 46 46 47 48 49 51 51 52 53 52 51 50 50 50 50 51 53 54 53 49 46 45 44 45 48 50 51 51 51 53 56 58 60 60 56 52 50 50 51 51 51 51 51 51 50 50 50 50 50 50 51
40 43 44 44 45 44 43 43 43 43 43 43 44 46 47 47 47 45 44 43 42 41 41 43 45 47 47 46 45 45 45 46 45 45 45 45 45 46 47 47 47 48 49 49 49 48 48 48 49 49 48 49 52 54 54 50 47 48 49 49 50 51 51 52 53 55 57 58 59 57 54 50 48 47 48 48 49 49 49 49 49 48 48 49 50 50 51
41 43 45 45 46 45 44 43 43 42 43 43 44 44 45 45 46 45 44 43 42 41 41 41 43 45 46 46 45 45 45 46 47 47 47 46 46 47 47 47 46 47 47 47 47 47 47 49 50 49 49 51 52 54 54 51 49 51 52 52 51 51 52 53 54 54 56 57 57 56 54 52 50 49 49 50 51 50 48 48 48 48 48 48 48 48 49
42 44 45 46 46 46 44 43 42 42 42 42 42 42 43 44 44 44 44 43 43 42 41 42 42 44 46 46 46 46 46 46 47 48 48 48 47 47 47 47 46 46 46 45 45 46 48 50 50 49 48 48 47 47 49 48 48 49 51 51 52 53 54 54 54 54 55 56 57 56 56 55 53 52 51 51 50 48 47 47 47 45 44 45 45 45 45
42 44 45 46 47 46 44 43 42 42 41 41 41 41 42 42 43 43 42 42 42 42 42 42 42 44 45 46 47 47 47 47 47 48 49 50 50 49 49 49 48 47 45 44 44 45 47 47 47 46 44 42 41 42 44 45 46 48 49 50 51 53 54 54 54 54 55 56 57 56 56 55 54 52 50 49 47 46 45 45 43 42 42 42 42 43 44
43 44 46 47 47 46 44 43 43 42 40 40 40 40 41 42 42 41 40 40 41 41 41 41 41 43 44 45 46 47 48 49 49 49 50 51 52 52 52 52 52 51 49 46 46 47 47 47 46 44 42 41 42 43 45 46 48 49 49 49 50 51 52 54 55 55 56 57 57 56 56 54 52 50 47 44 43 43 43 43 43 44 44 45 45 46 46
43 45 46 47 47 46 45 44 43 41 40 39 40 41 41 41 41 40 40 40 41 41 41 41 41 42 43 44 46 47 48 49 50 51 52 53 54 54 54 55 56 55 53 51 51 51 51 49 48 47 45 44 44 45 47 49 50 51 51 51 52 52 52 54 54 55 56 56 57 57 56 55 52 49 46 44 42 42 43 45 46 47 49 50 50 51 52
44 45 46 47 48 47 46 45 43 42 41 40 40 41 42 41 41 41 41 41 41 40 40 41 42 43 43 43 45 46 48 49 50 51 52 54 56 57 57 58 59 58 56 55 55 56 55 54 53 52 49 48 48 49 49 49 50 51 52 53 53 54 54 54 54 54 54 55 55 56 56 55 54 52 49 48 48 47 47 48 50 51 52 53 54 55 56
44 45 46 47 48 47 46 45 44 43 42 41 41 42 42 42 42 42 42 42 42 41 41 41 42 43 43 44 45 46 47 48 50 51 52 53 56 57 59 60 62 62 60 59 59 60 59 58 57 55 52 50 50 51 50 50 51 53 54 55 55 55 55 55 54 54 53 53 53 54 54 54 54 54 53 52 53 53 52 52 54 55 56 57 57 57 57
45 46 46 47 48 47 46 45 44 44 43 43 43 43 43 43 44 44 43 43 43 42 42 42 42 42 43 44 46 46 47 48 50 52 53 53 55 56 57 59 61 63 63 63 64 65 64 62 60 58 56 55 55 55 54 54 55 56 58 58 57 57 57 56 56 55 55 54 54 55 55 56 56 56 56 56 56 56 56 56 57 58 58 58 59 59 59
46 46 47 47 47 47 46 46 45 45 45 45 45 45 44 45 45 45 45 45 45 44 44 44 44 44 44 45 46 47 48 50 50 52 53 54 55 57 58 59 60 61 62 63 64 65 65 65 64 62 60 61 61 60 59 59 59 60 60 60 60 60 59 58 58 57 57 57 58 58 58 59 59 59 59 59 59 60 60 60 61 61 61 60 60 60 61
47 47 47 47 47 47 47 47 46 46 47 47 47 46 46 47 47 47 47 47 47 47 47 47 47 46 46 47 47 48 49 51 52 53 54 55 56 58 59 59 60 61 62 62 62 62 63 62 61 60 61 63 64 63 63 63 63 63 63 63 62 62 62 61 60 60 59 60 60 61 61 62 62 62 62 63 63 64 65 65 65 66 67 66 65 64 64
48 48 48 47 47 47 47 47 47 48 48 49 49 48 48 48 49 49 50 49 50 50 50 50 50 49 49 49 50 50 51 53 54 56 57 58 59 60 61 62 62 63 63 62 62 62 61 58 56 55 57 59 60 61 62 63 63 64 64 64 64 63 62 61 61 61 61 61 62 62 63 64 64 64 64 64 65 66 68 69 70 71 72 72 72 71 69
50 49 49 48 48 48 48 48 48 49 50 50 51 50 50 50 51 51 52 52 52 53 53 54 54 53 52 52 53 53 54 55 56 57 59 61 63 63 64 66 66 66 65 64 63 62 59 55 53 53 55 55 55 56 58 59 61 62 63 63 63 64 63 62 61 61 61 62 63 63 64 65 66 67 67 67 67 68 70 72 73 74 74 75 75 74 73
51 51 50 49 49 49 49 48 49 50 51 52 52 52 52 53 53 53 54 55 55 56 56 56 57 56 56 56 56 56 56 57 58 59 60 62 64 66 68 69 68 67 67 66 64 61 58 55 54 55 56 57 56 56 57 58 59 60 62 63 64 64 64 65 64 64 64 64 64 64 65 66 67 68 69 69 69 69 70 72 74 75 75 75 75 75 75
53 52 51 51 51 50 50 49 50 51 52 53 54 54 55 55 55 56 57 58 58 59 59 59 60 60 60 60 60 59 59 60 61 61 61 63 67 69 69 69 69 68 67 66 63 60 58 57 56 56 56 57 58 58 58 58 59 60 61 63 64 66 67 68 68 68 68 68 67 67 67 67 68 68 69 70 70 69 70 71 73 73 74 75 75 75 75
54 53 53 53 53 52 51 52 52 52 53 54 55 56 57 57 58 59 60 60 61 62 63 63 64 64 63 63 64 64 63 63 65 65 64 66 69 70 70 70 70 68 66 65 64 62 61 61 60 59 58 59 60 60 61 61 61 61 61 62 64 65 67 68 68 69 69 69 69 70 70 70 70 70 70 70 71 70 70 70 71 72 73 74 74 75 75
55 55 54 54 54 54 54 55 55 54 54 55 57 58 58 59 60 61 62 63 64 65 66 66 67 67 67 67 68 68 67 67 69 70 70 70 71 72 72 72 70 67 65 66 66 66 66 65 64 63 62 62 62 63 64 65 65 64 64 64 65 66 66 66 66 67 67 68 69 69 70 70 70 70 71 71 71 71 70 70 70 70 71 72 72 74 75
57 56 55 55 55 56 56 57 57 57 57 58 59 59 60 61 62 63 65 66 67 68 69 70 70 71 71 71 71 71 72 72 73 75 75 74 73 74 74 73 70 68 68 68 68 68 68 68 67 67 66 66 65 66 66 67 68 67 67 67 68 68 68 68 67 67 68 68 68 68 69 69 69 69 70 71 70 70 70 70 69 69 70 71 72 74 75
58 58 57 56 57 58 58 59 59 59 60 60 61 62 63 64 65 66 68 69 70 71 71 72 73 74 75 75 75 75 77 78 78 79 78 77 75 74 75 74 72 72 72 71 70 70 70 70 70 70 70 69 69 68 68 69 69 69 69 69 70 70 70 70 69 69 70 70 70 70 70 70 70 71 72 72 72 72 73 73 72 72 72 73 73 74 76
Wind_Direction
188 190 191 193 197 203 209 214 219 226 234 242 250 254 258 263 267 270 271 274 275 277 281 285 289 294 297 297 296 298 303 309 315 317 318 318 317 317 315 312 309 308 308 308 309 313 317 319 322 322 322 325 327 329 329 331 333 334 334 336 336 336 337 337 337 338 340 339 338 340 340 340 341 341 342 342 341 341 340 338 338 337 340 344 341 342 348
199 201 203 204 208 212 218 222 225 231 239 246 253 259 264 270 274 274 274 274 274 276 280 284 289 292 294 295 297 299 302 307 312 315 315 315 314 314 312 309 307 307 307 307 309 312 314 316 317 318 318 320 324 327 326 327 329 330 331 331 332 333 333 334 334 334 336 337 336 338 338 337 338 339 339 340 339 339 339 336 336 336 339 343 340 340 346
208 210 212 214 218 222 226 230 233 237 242 247 254 262 268 272 276 279 279 277 275 276 280 283 287 291 292 293 297 299 301 304 309 311 312 312 312 311 309 307 305 305 305 306 309 310 311 312 314 315 316 316 318 322 323 324 326 326 327 328 329 331 331 332 333 332 334 335 334 335 335 334 336 338 338 338 338 337 336 335 335 335 338 342 340 339 344
215 218 221 223 226 229 232 235 238 242 245 250 255 260 265 270 274 278 280 281 280 280 282 284 287 289 289 290 293 295 298 301 304 305 306 307 307 307 306 305 303 302 303 304 306 307 307 309 311 312 314 315 315 317 318 320 322 323 325 325 327 329 329 331 333 332 332 334 333 333 334 333 334 336 336 336 336 335 334 334 335 335 337 340 340 339 342
222 225 227 231 234 237 239 241 242 245 246 250 254 257 260 264 268 273 277 279 282 282 283 284 286 286 286 286 287 289 291 294 297 298 299 300 301 301 300 300 300 299 300 301 302 303 304 305 308 310 311 313 313 313 314 316 318 320 322 323 324 326 327 329 331 331 330 330 331 331 332 332 332 333 334 334 334 334 333 333 335 334 336 339 340 341 342
231 232 233 236 239 242 245 246 247 249 250 251 254 255 257 260 263 267 271 273 276 278 278 279 281 282 283 283 284 285 286 288 290 291 293 294 294 295 295 295 295 296 296 297 298 300 301 302 305 307 308 309 310 311 312 314 316 317 319 320 321 322 324 326 328 330 328 327 328 329 330 330 329 330 332 333 332 332 331 333 334 334 336 339 339 341 342
238 240 241 243 244 246 248 250 251 252 253 254 256 257 257 260 262 262 265 267 269 271 272 273 275 276 277 279 280 281 283 284 286 287 288 289 289 290 290 290 291 292 292 293 295 297 299 300 302 304 305 306 307 308 310 312 314 315 316 317 318 319 321 322 324 326 326 325 325 326 327 327 326 327 329 330 330 329 329 331 333 333 335 338 338 340 341
242 245 247 249 250 252 252 254 254 255 256 257 258 258 259 261 263 263 264 264 264 266 267 268 269 270 271 273 275 277 278 280 281 282 284 285 285 285 286 286 287 288 289 290 291 293 295 296 298 299 301 303 304 306 308 309 311 312 313 314 315 316 317 318 319 322 323 322 322 323 324 324 324 324 325 327 327 327 328 329 331 332 334 337 337 339 341
246 248 250 252 253 255 256 258 258 258 259 260 261 262 262 263 263 264 265 265 265 265 265 264 266 267 268 270 271 273 273 274 276 277 278 279 280 281 282 282 283 284 285 287 288 289 291 293 294 296 297 300 302 304 305 307 308 310 311 312 313 314 314 315 316 318 319 318 319 320 321 322 322 321 322 323 325 326 326 327 330 332 333 335 337 338 339
254 255 255 255 256 257 258 259 260 261 262 262 262 264 265 265 266 265 265 265 266 266 266 265 265 266 267 268 269 270 270 271 272 273 274 275 276 277 278 279 280 281 283 284 286 287 289 290 292 294 296 298 300 302 303 305 306 308 309 310 311 311 312 313 314 315 316 315 315 317 318 319 318 318 318 320 323 325 325 326 329 331 332 334 336 338 338
262 263 263 263 263 263 262 262 262 263 263 263 264 264 266 266 267 267 267 267 266 266 267 266 266 267 268 269 269 269 270 270 270 271 273 273 274 275 276 276 277 278 280 282 283 284 286 287 290 292 294 296 298 300 302 303 305 306 307 308 309 310 311 311 311 312 313 313 313 314 316 316 315 315 316 319 321 323 324 325 328 329 330 332 334 335 335
265 267 268 268 269 269 268 268 267 266 266 266 266 266 266 266 267 268 268 268 268 268 267 267 267 268 268 269 270 270 270 271 271 271 272 273 274 274 275 276 277 278 279 280 281 282 284 286 288 290 292 295 296 298 300 301 303 304 305 306 307 308 309 309 309 310 311 311 311 312 313 314 314 313 315 317 319 321 323 326 327 327 328 330 332 333 333
270 270 271 271 272 272 272 272 272 271 270 270 269 269 268 268 268 268 269 269 270 269 269 269 269 269 269 269 270 270 271 271 272 273 274 275 275 276 276 277 278 279 279 280 282 283 284 285 287 289 292 294 295 297 299 300 301 303 304 305 305 306 307 307 307 308 309 309 309 310 312 312 312 311 313 315 317 319 322 325 325 325 326 328 329 330 331
278 277 277 276 276 276 275 275 275 274 274 273 272 272 271 271 270 270 269 270 270 271 271 271 271 271 271 271 271 271 271 271 272 273 275 276 277 278 278 278 279 280 281 282 283 284 285 285 286 288 291 292 293 295 297 298 300 301 302 302 303 304 304 305 306 307 307 308 308 309 310 311 310 310 312 314 317 318 320 322 323 324 324 325 326 327 329
296 293 290 288 285 283 282 280 279 278 277 277 276 275 274 273 273 272 272 271 271 271 271 272 272 272 273 273 273 273 273 273 273 274 275 276 277 278 279 279 280 281 282 283 284 284 285 286 287 288 289 290 291 293 294 295 297 298 299 300 301 302 303 304 305 307 307 308 308 308 309 310 310 311 312 314 316 317 318 320 322 323 323 323 324 325 328
335 329 322 315 309 303 297 293 289 286 283 281 280 278 277 276 275 274 274 273 273 272 271 272 272 272 273 274 274 275 275 275 275 276 276 277 278 278 279 279 280 281 282 283 284 284 285 286 287 288 288 289 290 291 292 293 295 296 297 298 300 301 302 303 305 306 307 307 308 309 310 311 311 311 311 312 314 316 316 317 320 322 322 322 323 325 327
347 344 341 338 334 330 324 318 311 304 298 292 287 284 281 280 278 277 275 274 274 273 273 272 272 272 272 273 273 274 275 276 276 277 278 278 279 279 280 280 281 282 283 283 284 284 285 287 288 288 289 290 291 291 292 293 295 296 297 299 300 301 301 302 303 305 305 306 307 308 309 310 310 310 310 311 313 315 316 316 319 322 322 322 323 325 326
343 341 340 337 336 334 332 330 328 324 319 313 305 297 291 286 282 280 278 276 275 274 274 273 273 273 272 272 272 273 274 274 275 276 277 278 279 279 280 280 281 282 283 284 285 286 286 288 289 289 290 291 292 292 293 294 295 296 298 299 300 300 301 301 302 303 303 304 305 305 307 308 308 308 308 310 312 315 315 316 318 320 321 322 323 324 326
340 338 336 335 333 332 331 329 328 327 325 323 320 314 307 299 292 286 281 279 277 276 275 274 273 273 272 272 272 272 273 274 274 275 276 276 277 278 279 280 281 282 282 283 284 285 286 287 289 289 290 291 292 292 293 294 296 297 298 298 300 300 300 301 301 301 302 303 303 304 305 306 306 306 308 309 312 313 313 314 316 318 320 320 322 324 325
334 334 333 332 331 330 329 328 328 327 326 325 323 321 317 312 305 297 290 284 280 278 277 276 275 274 273 272 272 272 272 273 273 274 275 276 276 277 278 278 279 280 281 282 283 284 285 286 287 288 289 289 290 291 292 293 294 296 297 297 298 299 299 299 300 301 301 302 302 304 305 305 305 306 307 308 310 311 311 312 314 316 317 317 319 322 324
325 327 328 329 329 329 328 327 327 327 326 326 325 323 321 317 312 306 299 292 286 281 279 278 278 276 274 273 272 272 272 272 273 273 274 275 275 276 277 278 279 279 280 281 281 282 283 284 285 286 287 288 289 290 290 291 292 293 294 295 296 297 297 298 299 301 301 301 303 304 305 305 306 306 306 307 308 309 309 310 312 314 315 316 318 321 323
318 320 323 324 326 326 326 325 325 325 326 326 326 325 323 321 317 311 304 298 291 285 282 280 279 279 278 276 274 273 272 272 273 273 274 274 275 276 277 278 278 278 279 280 280 281 282 283 284 285 286 287 288 289 289 290 291 292 292 293 295 296 296 296 298 300 301 301 303 303 302 303 305 305 304 304 305 306 307 309 311 313 314 316 317 320 322
315 317 319 321 323 324 324 324 323 324 324 325 326 325 324 322 320 316 310 301 294 288 284 282 281 281 281 280 277 276 274 274 274 275 276 276 276 277 278 278 278 278 279 279 280 281 282 283 284 284 285 287 288 288 288 289 291 291 291 292 293 294 295 295 297 298 298 299 301 301 301 302 303 303 302 302 303 304 306 308 310 312 314 316 317 319 321
314 316 318 319 321 322 323 323 323 322 323 325 325 325 324 322 319 316 312 305 297 290 286 284 283 283 282 282 281 279 277 277 277 278 278 278 278 278 279 279 279 279 279 280 281 281 282 283 284 284 285 287 287 287 288 289 289 290 290 291 293 294 295 297 299 298 295 297 299 301 301 301 302 302 301 301 302 304 306 308 309 310 312 314 316 318 320
314 317 318 318 319 320 321 321 322 322 322 324 325 325 324 322 319 315 310 304 297 292 287 285 284 284 284 284 283 282 279 279 279 279 280 281 280 281 281 282 282 281 281 281 281 282 282 283 284 285 286 286 286 286 287 288 288 288 289 291 294 295 296 299 301 298 295 296 299 300 299 299 301 302 301 301 302 303 305 307 308 309 310 313 316 318 320
313 315 316 317 318 319 319 320 321 321 322 323 324 325 324 322 320 316 310 302 296 291 288 285 284 284 285 285 284 282 280 279 279 280 281 282 283 283 283 283 283 283 282 282 282 282 283 283 284 285 286 286 286 286 287 287 287 287 288 292 295 297 299 302 301 297 296 297 300 299 296 296 298 300 299 300 301 302 304 306 307 308 309 311 314 317 320
311 313 314 315 316 317 318 319 320 321 322 323 324 325 324 322 320 317 312 304 295 289 286 284 283 284 286 286 285 284 282 280 279 279 280 281 282 283 283 283 284 284 284 284 283 283 284 284 285 286 286 286 286 287 286 286 286 287 290 294 296 300 304 305 301 298 298 299 300 299 297 296 298 299 299 300 300 301 304 306 307 308 309 310 312 316 318
308 310 311 313 314 316 318 319 320 320 322 323 325 325 323 322 321 319 315 308 298 290 285 283 282 283 284 285 286 285 284 281 280 279 280 281 281 282 283 283 283 282 282 283 283 284 285 285 285 286 286 287 288 287 286 285 286 289 293 296 298 302 307 305 300 299 300 300 299 298 296 297 298 299 299 300 300 301 303 305 306 307 309 311 313 315 316
305 307 309 311 313 314 317 318 320 321 322 324 325 326 324 322 321 320 318 312 303 293 286 283 281 281 283 284 285 285 284 282 281 280 280 281 282 283 283 283 283 282 280 280 281 282 283 284 286 287 287 288 287 286 286 286 287 291 296 299 300 304 306 302 299 299 299 297 295 294 294 295 297 298 299 300 300 300 301 303 304 306 309 310 312 313 314
303 305 307 308 310 312 315 317 319 321 322 324 326 326 324 323 322 322 321 317 308 298 290 284 281 281 281 282 284 285 285 284 282 280 279 280 281 282 283 283 283 283 282 282 282 283 284 286 286 284 284 285 286 286 287 288 289 294 302 306 305 306 303 298 296 297 296 294 293 292 292 293 295 297 299 301 301 300 301 302 304 305 307 308 309 310 311
301 304 305 307 309 311 312 315 317 319 321 324 326 326 325 323 323 323 322 320 314 305 295 288 283 282 282 282 284 284 285 285 284 283 281 279 279 280 281 282 282 283 284 285 286 287 289 290 289 286 283 282 283 286 288 290 292 299 309 311 307 304 299 294 293 295 294 292 291 291 292 295 297 298 299 298 298 299 300 302 303 304 305 306 307 308 309
300 303 304 306 308 310 311 313 315 318 320 323 325 326 325 324 324 324 324 322 317 309 300 292 286 283 283 283 283 284 285 285 285 285 284 282 281 280 281 281 282 283 284 285 286 287 289 292 294 293 288 283 283 287 289 291 295 303 309 306 301 296 294 293 295 295 293 291 290 293 295 297 298 297 295 294 294 296 298 300 301 302 303 305 306 307 308
300 302 304 306 308 309 310 312 314 316 319 322 324 324 325 325 325 326 326 325 320 313 305 297 289 285 283 283 283 283 284 285 285 285 285 284 284 283 282 282 282 283 284 285 286 287 289 290 292 293 291 288 289 291 294 296 302 307 304 298 294 292 293 295 296 294 292 292 293 296 297 297 295 293 292 293 294 295 296 298 299 301 303 305 305 306 307
299 301 304 306 307 308 309 311 313 315 318 320 323 324 325 326 327 327 328 327 323 316 309 302 293 287 285 284 284 284 285 285 285 285 285 285 285 285 284 284 284 284 285 286 287 289 291 291 290 290 292 293 294 295 297 300 303 301 297 294 293 293 293 293 293 292 293 293 294 295 296 295 293 292 292 293 295 296 297 299 300 302 304 306 306 307 308
299 301 303 305 307 308 309 310 312 314 317 320 323 324 325 326 328 329 330 329 326 320 313 306 298 292 287 284 283 284 285 285 285 285 285 286 286 286 286 286 285 285 285 286 288 290 291 290 290 291 293 295 297 299 300 299 297 294 292 292 292 291 290 289 289 291 291 291 290 290 291 291 291 291 292 294 295 296 298 300 302 304 306 306 307 308 308
299 301 303 305 307 307 308 310 312 314 317 320 322 324 325 327 329 331 333 332 330 325 319 311 304 298 292 287 285 284 284 284 285 285 285 286 286 286 287 287 286 285 286 288 289 289 289 289 291 293 295 298 300 300 298 295 293 291 291 291 291 290 289 288 288 288 287 286 286 287 288 289 290 291 292 293 294 296 298 300 302 304 305 306 308 309 311
299 301 302 304 306 306 307 309 311 314 317 320 321 323 325 327 329 332 336 336 334 330 325 317 310 304 299 295 291 287 285 286 286 285 285 285 285 286 287 287 286 286 288 289 289 288 287 289 291 293 297 301 301 298 295 294 294 292 292 293 293 292 291 290 288 286 285 285 285 286 288 289 290 291 292 292 293 295 298 300 301 303 304 305 307 309 311
298 300 301 303 304 305 306 308 311 314 317 318 319 321 323 325 328 331 335 336 336 335 333 326 318 310 305 301 298 294 290 289 288 288 288 287 286 286 286 287 287 287 288 288 288 288 288 288 290 293 297 299 298 297 296 295 294 293 294 295 294 293 292 291 289 288 287 286 286 286 287 288 289 289 289 290 291 294 296 298 299 302 304 305 307 308 309
296 298 300 302 303 303 305 307 310 313 315 316 317 318 320 322 325 327 330 333 335 337 338 335 329 322 314 308 304 301 298 295 293 292 291 290 290 289 289 289 289 288 288 288 289 289 288 288 289 291 294 295 295 295 294 294 293 294 294 294 293 292 293 292 291 290 289 288 287 287 287 287 287 286 286 285 287 289 293 296 299 302 304 305 307 308 308
295 297 299 300 301 302 303 306 308 311 314 315 316 316 317 318 320 323 326 328 331 334 336 337 337 334 328 320 314 309 305 302 300 297 295 293 293 292 291 291 291 290 289 289 290 290 289 289 289 290 293 294 294 293 292 292 293 293 293 292 291 292 292 292 291 290 289 288 288 289 289 289 288 287 287 287 288 290 292 295 298 301 302 303 305 306 307
293 295 297 299 300 300 302 305 307 310 313 314 314 314 315 315 316 319 321 324 326 328 330 332 335 336 334 331 326 320 314 310 307 304 301 300 298 296 295 295 294 292 291 291 290 290 290 289 289 290 293 294 293 292 291 292 291 291 290 290 291 291 291 291 290 288 287 287 288 288 288 288 288 288 288 289 290 292 294 296 297 299 300 302 303 304 305
292 294 296 297 298 299 301 304 307 309 311 312 313 313 313 313 315 316 318 319 321 322 324 326 329 330 331 331 331 329 325 321 316 311 308 307 305 303 302 301 298 296 295 293 291 290 290 290 290 291 293 294 293 292 291 291 290 289 289 289 290 290 291 291 290 289 288 287 287 287 287 287 287 287 288 289 290 291 293 294 295 296 297 299 300 301 302
291 293 294 296 296 297 300 302 305 308 309 310 311 312 312 313 313 314 315 316 316 317 318 320 322 324 324 325 327 328 327 326 323 320 316 314 311 309 308 306 304 303 301 298 296 294 294 292 292 292 293 293 293 292 291 290 289 288 289 290 290 290 291 291 291 291 289 288 288 287 287 287 287 287 287 288 289 290 291 292 293 294 295 296 297 298 300
290 292 293 294 295 296 299 302 304 306 307 308 310 311 312 312 313 313 313 313 313 313 314 315 316 318 318 318 320 322 323 323 324 324 322 320 318 315 312 310 309 308 306 304 303 302 301 299 298 297 295 292 292 292 291 291 290 291 291 292 292 292 292 292 292 291 290 289 288 288 287 287 287 287 288 289 289 290 291 291 292 293 295 295 296 297 298
290 292 293 294 294 296 299 302 303 304 306 307 309 310 311 311 311 311 311 311 310 310 310 310 311 313 313 313 314 316 317 318 320 322 322 321 321 319 317 315 314 313 312 312 311 309 307 306 306 304 299 295 293 293 293 293 292 293 293 293 294 294 294 294 293 292 291 290 289 288 288 288 287 287 286 286 287 289 291 292 293 294 294 295 296 297 298
290 291 292 293 294 296 299 301 302 304 305 306 307 308 309 310 310 309 309 308 308 308 308 308 308 308 308 307 308 310 311 312 315 317 318 317 318 320 319 318 317 316 316 316 316 314 311 309 306 304 301 299 298 297 296 295 294 294 293 293 293 293 293 293 293 292 291 290 289 289 288 288 287 286 285 285 286 287 290 291 293 293 294 295 296 297 298
290 290 291 292 294 296 298 300 301 302 304 305 306 307 308 308 308 307 307 306 306 306 306 306 305 305 305 304 304 305 307 307 309 312 313 312 313 316 318 317 317 317 317 316 315 315 313 309 304 301 300 300 299 298 298 296 295 294 292 291 290 290 290 289 289 289 289 289 289 288 288 287 286 286 285 285 286 287 288 290 291 293 294 295 296 297 297
289 290 290 292 293 295 297 298 299 301 302 304 305 305 305 305 306 305 305 305 305 304 304 304 303 302 303 302 302 303 304 304 305 308 309 308 309 313 314 313 314 316 316 314 312 311 308 304 301 299 298 297 296 296 294 294 293 292 290 289 288 287 287 286 287 287 288 288 288 288 288 287 287 287 287 288 287 287 288 289 291 293 295 296 297 298 298
288 288 289 291 292 294 295 296 297 299 301 302 302 303 303 304 304 304 303 303 303 303 303 302 302 302 302 301 300 301 303 303 303 304 305 306 309 311 310 310 312 314 313 310 307 305 303 301 299 297 295 294 293 292 291 290 290 289 289 289 288 288 287 287 287 288 288 288 288 289 289 289 289 290 290 291 291 290 290 291 293 294 295 297 298 298 299
286 287 289 290 291 293 294 295 297 299 300 300 300 301 302 302 302 302 301 301 301 301 301 301 301 301 300 300 300 301 302 302 301 302 305 308 311 309 307 308 311 312 308 304 302 301 300 299 298 297 295 293 291 290 290 290 289 289 289 289 289 289 289 289 289 289 289 289 289 290 291 291 292 292 293 293 293 293 293 294 294 295 296 297 298 298 299
286 287 288 289 290 292 293 295 296 298 299 299 300 300 300 300 300 300 300 300 300 300 300 300 300 300 299 299 300 301 300 300 301 303 306 309 311 309 307 308 309 306 301 299 299 298 298 297 296 295 294 293 291 290 289 289 288 288 288 288 288 288 288 288 288 289 289 289 289 290 291 292 292 293 293 293 294 294 295 295 295 295 296 296 297 297 297
285 286 287 289 291 292 293 294 296 297 298 299 299 299 299 299 299 298 298 298 298 298 298 298 298 298 298 299 299 299 300 301 302 304 306 310 311 309 306 305 303 300 298 297 296 295 295 294 294 294 293 292 291 290 289 288 287 287 287 286 286 286 286 287 287 287 288 288 288 289 290 291 291 292 292 293 294 295 295 295 295 295 295 295 295 296 296